This is the latest recevied weather packets stored in our database for station/object K0APR. If no packets are shown the sender has not sent any weather packets the latest 1 day(s).
| Time | Temp. | Humidity | Pressure | Rain* | Wind** | Luminosity | Snow |
|---|---|---|---|---|---|---|---|
| 1778040569 | 5° C | 57% | 1015.1 hPa | 0 mm | 1.34 m/s, 325° | 0 W/m² | - |
| 1778040267 | 5° C | 57% | 1015.1 hPa | 0 mm | 1.34 m/s, 321° | 0 W/m² | - |
| 1778039962 | 4.44° C | 57% | 1015.1 hPa | 0 mm | 1.79 m/s, 326° | 0 W/m² | - |
| 1778039660 | 4.44° C | 58% | 1014.7 hPa | 0 mm | 0 m/s | 0 W/m² | - |
| 1778039357 | 4.44° C | 58% | 1014.7 hPa | 0 mm | 0 m/s | 0 W/m² | - |
| 1778039054 | 4.44° C | 57% | 1014.7 hPa | 0 mm | 0 m/s | 0 W/m² | - |
| 1778038751 | 4.44° C | 57% | 1014.7 hPa | 0 mm | 0.45 m/s, 332° | 0 W/m² | - |
| 1778038448 | 5° C | 56% | 1014.7 hPa | 0 mm | 0.45 m/s, 323° | 0 W/m² | - |
| 1778038145 | 5° C | 56% | 1014.7 hPa | 0 mm | 1.34 m/s, 325° | 0 W/m² | - |
| 1778037842 | 5° C | 56% | 1014.7 hPa | 0 mm | 1.34 m/s, 331° | 0 W/m² | - |
| 1778037538 | 5° C | 57% | 1014.7 hPa | 0 mm | 0 m/s | 0 W/m² | - |
| 1778037236 | 5° C | 56% | 1014.7 hPa | 0 mm | 0.45 m/s, 341° | 0 W/m² | - |
| 1778036933 | 5° C | 55% | 1014.4 hPa | 0 mm | 0.89 m/s, 355° | 0 W/m² | - |
| 1778036631 | 5° C | 56% | 1014.4 hPa | 0 mm | 1.34 m/s, 339° | 0 W/m² | - |
| 1778036328 | 5° C | 55% | 1014.7 hPa | 0 mm | 1.34 m/s, 317° | 0 W/m² | - |
| 1778036024 | 5° C | 55% | 1014.4 hPa | 0 mm | 1.79 m/s, 334° | 0 W/m² | - |
| 1778035721 | 5° C | 55% | 1014.4 hPa | 0 mm | 1.34 m/s, 321° | 0 W/m² | - |
| 1778035418 | 5.56° C | 54% | 1014.4 hPa | 0 mm | 1.79 m/s, 329° | 0 W/m² | - |
| 1778035114 | 5.56° C | 54% | 1014 hPa | 0 mm | 1.79 m/s, 328° | 0 W/m² | - |
| 1778034811 | 5.56° C | 54% | 1014 hPa | 0 mm | 1.34 m/s, 328° | 0 W/m² | - |
| 1778034508 | 5.56° C | 53% | 1014 hPa | 0 mm | 1.34 m/s, 326° | 0 W/m² | - |
| 1778034206 | 5.56° C | 53% | 1014 hPa | 0 mm | 1.34 m/s, 337° | 0 W/m² | - |
| 1778033904 | 5.56° C | 53% | 1013.7 hPa | 0 mm | 1.34 m/s, 324° | 0 W/m² | - |
| 1778033600 | 5.56° C | 52% | 1013.7 hPa | 0 mm | 1.34 m/s, 332° | 0 W/m² | - |
| 1778033297 | 5.56° C | 52% | 1013.7 hPa | 0 mm | 1.34 m/s, 327° | 0 W/m² | - |
* Rain latest hour (hover to see other rain measurements)
** Current wind speed in m/s (hover to see current wind gust speed)